Regional Weather Roundup
Issued by NWS

Home | Current Version | Previous Version | Graphics & Text | Print | Product List | Glossary On
Versions: 1 2 3 4 5 6 7 8 9 10 11 12 13 14 15 16 17 18 19 20 21 22 23 24 25 26 27 28 29 30 31 32 33 34 35 36 37 38 39 40 41 42 43 44 45 46 47 48 49 50
000
ASUS45 KBOU 300707
RWRCO

WEATHER ROUNDUP FOR COLORADO
NATIONAL WEATHER SERVICE DENVER/BOULDER CO
100 AM MDT WED JUL 30 2014

NOTE: "FAIR" INDICATES FEW OR NO CLOUDS BELOW 12000 FEET WITH NO
SIGNIFICANT WEATHER AND/OR OBSTRUCTIONS TO VISIBILITY.

COZ001>005-013-030-031-300800-
...NORTHWEST COLORADO...

CITY           SKY/WX    TMP DP  RH WIND       PRES   REMARKS
CRAIG          CLOUDY    55 N/A N/A SW5       30.29S
HAYDEN         CLOUDY    57  54  88 S5        30.30S
MEEKER         MOCLDY    56  53  90 CALM      30.30S
MOUNT WERNER   NOT AVBL
STEAMBOAT SPGS CLOUDY    55  54  95 CALM      30.31S
WALDEN         CLOUDY    54  52  94 CALM      30.37S
$$

COZ006>008-011-300800-
...WEST CENTRAL VALLEYS...

CITY           SKY/WX    TMP DP  RH WIND       PRES   REMARKS
GRAND JUNCTION CLOUDY    63  57  81 E8        30.20F
MONTROSE       MOCLDY    62  57  83 E3        30.28F
EAGLE          CLOUDY    59  57  94 E3        30.33S
RIFLE          CLOUDY    60  57  89 CALM      30.26F
DELTA          NOT AVBL
NUCLA          CLOUDY    63  55  77 CALM      30.29S
$$

COZ017>023-064>068-300800-
...SOUTHWEST COLORADO...

CITY           SKY/WX    TMP DP  RH WIND       PRES   REMARKS
DURANGO        MOCLDY    64  48  56 N6        30.27F
CORTEZ         CLOUDY    63  56  78 NE3       30.24S
PAGOSA SPRINGS MOCLDY    57  50  77 CALM      30.35S
TELLURIDE      MOCLDY    52  48  87 SE5       30.45F
WOLF CREEK PAS NOT AVBL
$$

COZ009-010-012-014-032>034-037-058>063-300800-
...CENTRAL COLORADO...

CITY           SKY/WX    TMP DP  RH WIND       PRES   REMARKS
ASPEN          LGT RAIN  55  52  89 S5        30.39F
BUENA VISTA    CLOUDY    61  44  53 W10G17    30.35F
COPPER MTN     RAIN      45  41  87 W16       30.62S VSB<1/4
BERTHOUD PASS  RAIN      36  28  75 W6        30.66S
COTTONWOOD PAS LGT RAIN  54  43  66 W15G22    30.47F
GUNNISON       CLOUDY    55  48  76 CALM      30.40S
KREMMLING      LGT RAIN  54  52  94 SW3       30.36S
LEADVILLE      LGT RAIN  49  43  80 N7        30.48S
MONARCH PASS   FOG       41  39  93 SW13      30.71F VSB<1/4
SALIDA         CLOUDY    57  54  89 CALM      30.41S
SUNLIGHT       LGT RAIN  46  45  93 CALM      30.56F
WILKERSON PASS FOG       45  43  93 N5        30.58F VSB 1/2
$$

COZ069>075-300800-
...SAN LUIS VALLEY/SANGRE DE CRISTO MOUNTAINS...

CITY           SKY/WX    TMP DP  RH WIND       PRES   REMARKS
ALAMOSA        MOCLDY    54  52  93 CALM      30.34R
LA VETA PASS   MOCLDY    46  45  93 SW6       30.49S
SAGUACHE       MOCLDY    55  50  82 NW13      30.37S
$$

COZ035-036-038>040-300800-
...NORTHERN COLORADO FRONT RANGE...

CITY           SKY/WX    TMP DP  RH WIND       PRES   REMARKS
DENVER INTL AP LGT RAIN  58  57  97 E7        30.25F
DMNS CITY PARK   N/A     58  57  96 NE6       30.26S
AURORA         LGT RAIN  57  57 100 NE7       30.27S
FRONT RANGE AP LGT RAIN  59  59 100 E8        30.27S
ERIE MUNI ARPT DRIZZLE   59  58  96 CALM      30.26S
BOULDER MUN AP HVY RAIN  59  59 100 NW6       30.27F
CENTENNIAL     RAIN      57  56  96 N7        30.27S FOG
BROOMFIELD     DRIZZLE   59  59 100 E10       30.29R
FORT COLLINS   CLOUDY    61  57  88 E13       30.28S
LONGMONT       HVY RAIN  62  60  94 NE8       30.28S
$$

COZ041-046-047-076>085-087-088-300800-
...PIKES PEAK/PALMER DIVIDE AND SOUTHERN FOOTHILLS...

CITY           SKY/WX    TMP DP  RH WIND       PRES   REMARKS
COLO. SPRINGS  CLOUDY    60  56  86 N5        30.28S
A. F. ACADEMY  CLOUDY    58  58  99 N10       30.29S
ELLICOTT       CLOUDY    59  57  93 NE8       30.25F
FALCON         CLOUDY    57  55  94 NE7       30.32R
FORT CARSON    CLOUDY    60  58  94 N6        30.25S
LIMON          CLOUDY    59  58  96 NE8       30.24F
MONUMENT HILL  CLOUDY    54  52  94 N5        30.31S FOG
TRINIDAD       MOCLDY    62  59  90 NW7       30.22S
$$

COZ042>045-048>051-090-091-300800-
...NORTHEAST COLORADO...

CITY           SKY/WX    TMP DP  RH WIND       PRES   REMARKS
GREELEY ARPT   CLOUDY    61  55  82 E7        30.26S
AKRON          CLOUDY    60  58  92 NE12      30.24R
BURLINGTON     CLOUDY    63  60  90 N5        30.19S
WRAY             N/A    N/A N/A N/A N10       30.21S
STERLING       LGT RAIN  64  64 100 NE6       30.23S
HOLYOKE        RAIN      63  61  94 E9        30.23F
FORT MORGAN    CLOUDY    60  58  92 NE10      30.24F
$$

COZ086-089-092>099-300800-
...SOUTHEAST COLORADO...

CITY           SKY/WX    TMP DP  RH WIND       PRES   REMARKS
PUEBLO         CLOUDY    64  62  93 N5        30.19R
LA JUNTA       CLOUDY    65  63  93 NE10      30.12S
LAMAR          CLOUDY    65  64  97 NE9       30.08F
SPRINGFIELD      N/A     62  61  96 SW12G24   30.11R
$$



USA.gov is the U.S. government's official web portal to all federal, state and local government web resources and services.